Location: Nashville
(36.1660°N, 86.7840°W)
Time: 10:10:35
(UTC-05:00)

Envisat - Visible Passes

Search period start: 25 July 2024 00:00
Search period end: 04 August 2024 00:00
Orbit: 762 x 764 km, 98.3° (Epoch: 25 July)

Date Brightness Start Highest point End Pass type
(mag) Time Alt. Az. Time Alt. Az. Time Alt. Az.
25 Jul 3.5 03:38:36 10° NNE 03:43:34 53° E 03:46:19 25° SSE visible
25 Jul 4.7 05:19:00 10° NNW 05:22:03 16° WNW 05:25:05 10° WSW visible
26 Jul 4.9 03:02:05 10° NE 03:06:00 22° E 03:08:25 16° SE visible
26 Jul 3.7 04:40:24 10° N 04:45:01 36° WNW 04:48:34 16° SW visible
27 Jul 2.9 04:02:40 10° NNE 04:07:46 86° WNW 04:10:40 26° SSW visible
28 Jul 4.1 03:25:35 10° NNE 03:30:19 39° E 03:32:46 24° SSE visible
28 Jul 4.4 05:05:13 10° NNW 05:08:59 21° WNW 05:12:45 10° WSW visible
29 Jul 5.2 02:49:32 10° NE 02:52:42 17° E 02:54:52 13° ESE visible
29 Jul 3.3 04:27:00 10° N 04:31:52 49° WNW 04:35:01 21° SW visible
30 Jul 3.1 03:49:29 10° NNE 03:54:33 71° ESE 03:57:07 29° S visible
31 Jul 4.5 03:12:40 10° NE 03:17:03 29° E 03:19:12 21° SE visible
31 Jul 4.1 04:51:37 10° NNW 04:55:54 28° WNW 04:59:21 14° WSW visible
01 Aug 5.5 02:37:30 10° ENE 02:39:21 12° E 02:41:11 10° ESE visible
01 Aug 3.0 04:13:41 10° N 04:18:43 66° WNW 04:21:27 27° SSW visible
02 Aug 3.6 03:36:23 10° NNE 03:41:20 51° E 03:43:33 30° SSE visible
02 Aug 4.7 05:16:40 10° NNW 05:19:50 17° WNW 05:22:58 10° WSW visible
03 Aug 4.9 02:59:54 10° NE 03:03:45 22° E 03:05:38 18° SE visible
03 Aug 3.7 04:38:07 10° N 04:42:46 37° WNW 04:45:47 19° SW visible
